Weather History for Charlottetown, PE

Change the Weather History Date:

Wednesday, November 23, 2011

  Actual Average Record
Temperature  
Mean Temperature 27 °F -  
Max Temperature 32 °F 34 °F 57 °F (2005)
Min Temperature 22 °F 20 °F 19 °F (2008)
Degree Days  
Heating Degree Days 38    
Moisture  
Dew Point 21 °F    
Average Humidity 75    
Maximum Humidity 93    
Minimum Humidity 50    
Precipitation  
Precipitation 0.16 in 0.17 in - ()
Sea Level Pressure  
Sea Level Pressure 30.16 in    
Wind  
Wind Speed 7 mph ()    
Max Wind Speed 24 mph    
Max Gust Speed 34 mph    
Visibility 7.5 miles    
Events Snow    
Averages and records for this station are not official NWS values.
T = Trace of Precipitation, MM = Missing Value Source: Averaged Metar Reports

Daily Weather History Graph

Daily Weather History Graph

Search for Another Location

Airport:

Trip Planner

Search our weather history database for the weather conditions in past years. The results will help you decide how hot, cold, wet, or windy it might be!

Date:

Astronomy

Nov. 23, 2011 Rise Set
Actual Time 7:24 AM AST 4:32 PM AST
Civil Twilight 6:51 AM AST 5:06 PM AST
Nautical Twilight 6:14 AM AST 5:43 PM AST
Astronomical Twilight 5:38 AM AST 6:19 PM AST
Moon 5:20 AM AST (11/23) 3:12 PM AST (11/23)
Length of Visible Light 10h 15m
Length of Day
9h 08m
Waning Crescent, 4% of the Moon is Illuminated
Nov 23
Waning Crescent
Nov 25
New
Dec 2
First Quarter
Dec 10
Full
Dec 17
Last Quarter

Hourly Weather History & Observations

Time (AST) Temp. Windchill Dew Point Humidity Pressure Visibility Wind Dir Wind Speed Gust Speed Precip Events Conditions
12:00 AM 24.8 °F 17.9 °F 12.2 °F 59% 30.34 in 15.0 mi WSW 5.8 mph - N/A   Clear
1:00 AM 24.8 °F 16.9 °F 12.2 °F 59% 30.32 in 15.0 mi West 6.9 mph - N/A   Partly Cloudy
2:00 AM 24 °F - 13 °F 50% 30.33 in 15 mi West 5.8 mph - -   Clear
2:00 AM 24.8 °F 17.9 °F 14.0 °F 64% 30.33 in 15.0 mi West 5.8 mph - N/A   Partly Cloudy
3:00 AM 24.8 °F 17.9 °F 14.0 °F 64% 30.35 in 15.0 mi West 5.8 mph - N/A   Overcast
4:00 AM 24.8 °F 19.1 °F 14.0 °F 64% 30.34 in 15.0 mi West 4.6 mph - N/A   Overcast
5:00 AM 24.8 °F 20.5 °F 15.8 °F 69% 30.31 in 15.0 mi WNW 3.5 mph - N/A   Overcast
6:00 AM 26.6 °F 20.0 °F 15.8 °F 64% 30.31 in 15.0 mi West 5.8 mph - N/A   Overcast
7:00 AM 26.6 °F 22.6 °F 17.6 °F 69% 30.27 in 15.0 mi NW 3.5 mph - N/A   Overcast
8:00 AM 26 °F - 19 °F 65% 30.28 in 15 mi Calm Calm - -   Overcast
9:00 AM 28.4 °F - 21.2 °F 74% 30.26 in 15.0 mi West 2.3 mph - N/A   Overcast
10:00 AM 30.2 °F - 19.4 °F 64% 30.26 in 15.0 mi Calm Calm - N/A   Overcast
11:00 AM 30.2 °F - 19.4 °F 64% 30.25 in 15.0 mi Calm Calm - N/A   Overcast
12:00 PM 30.2 °F 26.7 °F 19.4 °F 64% 30.19 in 15.0 mi SE 3.5 mph - N/A   Overcast
12:51 PM 32.0 °F - - N/A% - 15.0 mi ESE 2.3 mph - N/A Snow Light Snow
1:00 PM 32.0 °F 28.7 °F 19.4 °F 60% 30.15 in 10.0 mi ESE 3.5 mph - N/A Snow Light Snow
1:11 PM 30.2 °F 26.7 °F - N/A% - 1.5 mi ESE 3.5 mph - N/A Snow Light Snow
2:00 PM 29 °F - 26 °F 85% 30.12 in 2 mi ESE 6.9 mph - - Snow Light Snow
2:00 PM 28.4 °F 21.2 °F 26.6 °F 93% 30.12 in 2.0 mi ESE 6.9 mph - N/A Snow Light Snow
2:20 PM 28.4 °F 20.4 °F - N/A% - 1.0 mi East 8.1 mph - N/A Snow Light Snow
2:47 PM 28.4 °F 20.4 °F - N/A% - 0.5 mi East 8.1 mph - N/A Snow Snow
4:00 PM 26.6 °F 17.5 °F 24.8 °F 93% 30.06 in 0.5 mi ENE 9.2 mph - N/A Snow Snow
5:00 PM 28.4 °F 18.0 °F 26.6 °F 93% 30.01 in 0.5 mi ENE 12.7 mph - N/A Snow Snow
6:00 PM 28.4 °F 18.5 °F 26.6 °F 93% 29.99 in 0.5 mi ENE 11.5 mph - N/A Snow Snow
7:00 PM 30.2 °F 20.2 °F 28.4 °F 93% 29.95 in 0.8 mi ENE 12.7 mph 19.6 mph N/A Snow Light Snow
8:00 PM 30.2 °F 19.3 °F 28.4 °F 93% 29.91 in 0.8 mi ENE 15.0 mph - N/A Snow Light Snow
8:40 PM 30.2 °F 18.9 °F - N/A% - 1.0 mi ENE 16.1 mph 23.0 mph N/A Snow Light Snow
9:00 PM 30.2 °F 17.8 °F 28.4 °F 93% 29.86 in 1.0 mi East 19.6 mph 25.3 mph N/A Snow Light Snow
9:09 PM 30.2 °F 18.5 °F - N/A% - 0.6 mi ENE 17.3 mph 24.2 mph N/A Snow Light Snow
10:00 PM 32.0 °F 20.5 °F 30.2 °F 93% 29.85 in 0.8 mi ENE 18.4 mph - N/A Snow Light Snow
10:31 PM 32.0 °F 20.5 °F - N/A% - 1.2 mi ENE 18.4 mph 24.2 mph N/A Snow Light Snow
11:00 PM 32.0 °F 21.6 °F 30.2 °F 93% 29.82 in 1.0 mi ENE 15.0 mph - N/A Snow Light Snow
11:22 PM 32.0 °F 19.2 °F - N/A% - 0.8 mi ENE 23.0 mph 28.8 mph N/A Snow Light Snow
11:44 PM 32.0 °F 18.9 °F - N/A% - 2.0 mi ENE 24.2 mph 34.5 mph N/A Snow Light Snow